Regional Weather Roundup
Issued by NWS Pendleton, OR

Home | Current Version | Previous Version | Text Only | Print | Product List | Glossary On
Versions: 1 2 3 4 5 6 7 8 9 10 11 12 13 14 15 16 17 18 19 20 21 22 23 24 25 26 27 28 29 30 31 32 33 34 35 36 37 38 39 40 41 42 43 44 45 46 47 48 49 50
879
ASUS46 KPDT 210610
RWRPDT
PENDLETON REGIONAL WEATHER ROUNDUP
NATIONAL WEATHER SERVICE PENDLETON OREGON
1000 PM PST FRI JAN 20 2017

NOTE: FAIR INDICATES FEW OR NO CLOUDS BELOW 12,000 FEET WITH NO
SIGNIFICANT WEATHER AND/OR OBSTRUCTIONS TO VISIBILITY.

# INDICATES UNOFFICIAL STATION AND DATA

WAZ520-210710-
EAST SLOPES OF WASHINGTON CASCADES

CITY            SKY/WX      TMP DP  RH  WIND    PRES   REMARKS
#CLE ELUM HS    N/A         34  31  89  CALM    29.21S
#CLE ELUM LAKE  N/A         31  31  100 CALM    29.25S
#GLENWOOD       N/A         34  33  96  CALM    29.25R
#NELSON 3SW     N/A         31  30  96  CALM    29.47R
#NILE           N/A         31  30  96  CALM    28.52S
#TEANAWAY 4NE   N/A         32  32  100 CALM    N/A
#TROUT LAKE 1NE N/A         33  32  96  CALM    29.26R
#TROUT LAKE 1E  N/A         32  31  96  CALM    29.22R
$$

WAZ521-210710-
SIMCOE HIGHLANDS

CITY            SKY/WX      TMP DP  RH  WIND    PRES   REMARKS
#BICKLETON HS   N/A         32  32  100 CALM    28.87S
#CENTERVILLE 1SWN/A         31  29  92  CALM    29.23R
#GOLDENDALE 1NE N/A         33  28  82  CALM    N/A
#GOLDENDALE 4W  N/A         32  29  89  CALM    29.27R
#GOODNOE HILLS  N/A         33  29  85  W3      N/A
#LYLE 6NE       N/A         32  31  96  CALM    29.24R
#PITT 4SE       N/A         30  29  96  CALM    29.28R
$$

WAZ026-210710-
KITTITAS VALLEY

CITY            SKY/WX      TMP DP  RH  WIND    PRES   REMARKS
ELLENSBURG AP   MXD PCPN    34  32  92  NW3     29.21S
6HR MIN TEMP:   34; 6HR MAX TEMP:   34; 6HR PCP:  TRACE;

#ELLENSBURG CWU N/A         32  31  96  CALM    29.22R
#ELLENSBURG 3NE N/A         32  31  96  CALM    27.34R
#ELLENSBURG 1E  N/A         31  N/A N/A CALM    N/A
#KITTITAS 4N    N/A         32  30  92  W1      29.28R
#KITTITAS 3S    N/A         32  31  96  CALM    29.27R
#THORP 6N       N/A         32  31  96  CALM    29.28S
$$

WAZ027-210710-
YAKIMA VALLEY

CITY            SKY/WX      TMP DP  RH  WIND    PRES   REMARKS
SUNNYSIDE AP    LGT SNOW    28  28  100 CALM    29.26R
YAKIMA AIRPORT  RAIN        36  34  92  W5      29.24R FOG
6HR MIN TEMP:   35; 6HR MAX TEMP:   38; 6HR PCP:  0.18;

YAKIMA-VAGABOND MIXED PCPN  34  32  92  SW3     29.21R
6HR MIN TEMP:   34; 6HR MAX TEMP:   37; 6HR PCP:  0.02;

#DONALD 2NE     N/A         33  27  78  NW1     28.11R
#MABTON         N/A         29  28  96  CALM    29.25R
#NACHES 2SW     N/A         34  33  96  CALM    29.19S
#TERRACE HTS    N/A         33  32  96  CALM    29.26R
#TOPPENISH      N/A         31  30  96  CALM    29.21R
#WEST VALLEY    N/A         33  31  92  CALM    29.27R
#W YAKIMA       N/A         34  33  96  CALM    29.28R
#WHITE SWAN 5E  N/A         34  33  96  CALM    29.29S
#WILEY CITY 3W  N/A         33  29  85  CALM    29.20R
$$

WAZ028-210710-
LOWER COLUMBIA BASIN...WASHINGTON

CITY            SKY/WX      TMP DP  RH  WIND    PRES   REMARKS
PASCO           CLOUDY      34  33  96  CALM    29.26R
6HR MIN TEMP:   34; 6HR MAX TEMP:   36;

PROSSER AWOS    N/A         32  32  100 CALM    29.29R
RICHLAND AWOS   CLOUDY      33  32  96  CALM    29.26R FOG
#BENTON CITY    N/A         32  30  92  W1      29.18S
#CONNELL 5N     N/A         33  31  92  N3      29.26S
#CONNELL 5NW    N/A         33  31  92  N3      29.23S
#ELTOPIA 6NW    N/A         35  33  92  CALM    28.22R
#KAHLOTUS       N/A         37  33  85  CALM    29.25R
#KENNEWICK 3S   N/A         35  32  89  CALM    29.28R
#PATERSON       N/A         35  32  89  CALM    29.25R
#SAGEMOOR 2W    N/A         35  32  89  NW6     29.11R
#TOUCHET 2S     N/A         31  29  92  CALM    29.25R
#WEST PASCO     N/A         34  31  89  CALM    29.17R
$$

WAZ029-210710-
FOOTHILLS OF THE BLUES...WASHINGTON

CITY            SKY/WX      TMP DP  RH  WIND    PRES   REMARKS
WALLA WALLA AP  CLOUDY      33  30  89  SE6     29.21S FOG
6HR MIN TEMP:   32; 6HR MAX TEMP:   36; 6HR PCP:  TRACE;

#CLYDE 6NW      N/A         35  32  89  CALM    29.24R
#DAYTON SCHOOL  N/A         43  26  51  E2      29.26R
#LOWDEN 2SE     N/A         31  30  96  CALM    29.21R
#PLEASANT VIEW 1N/A         38  32  79  SW3     29.29R
#PRESCOTT       N/A         36  33  89  CALM    29.23S
#WHITMAN COLLEGEN/A         33  31  92  E2      29.30R
#WAITSBURG 5S   N/A         37  31  79  CALM    29.31S
#WAITSBURG 8N   N/A         35  N/A N/A CALM    29.06S
#WALLA WALLA 5E N/A         35  32  89  CALM    N/A
#WALLA WALLA U  N/A         33  31  92  CALM    29.26S
#WHITMAN MISSIONN/A         33  31  92  CALM    29.28R
$$

WAZ030-210710-
BLUE MOUNTAINS...WASHINGTON

CITY            SKY/WX      TMP DP  RH  WIND    PRES   REMARKS
#DIXIE 5SE      N/A         40  27  59  E6      29.09S
#SKI BLUEWOOD   N/A         30  26  85  SW6     29.16R
$$

ORZ009-041-WAZ024-210710-
COLUMBIA RIVER GORGE

CITY            SKY/WX      TMP DP  RH  WIND    PRES   REMARKS
HOOD RIVER AP   CLOUDY      32  32  100 CALM    29.25R FOG
THE DALLES AP   CLOUDY      34  33  96  CALM    29.27R FOG
6HR MIN TEMP:   33; 6HR MAX TEMP:   34; 6HR PCP:  0.15;

#ARLINGTON AIRPON/A         33  32  96  NW3     29.28R
#ARLINGTON HS   N/A         34  32  92  CALM    29.17R
#CELILO DOT     N/A         34  32  92  S5      N/A
#LYLE           N/A         34  33  96  CALM    29.29R
#MOSIER 1S      N/A         33  31  92  CALM    29.23S
#MURDOCK        N/A         33  32  96  CALM    29.25R
#RUFUS DOT      N/A         34  34  100 NW7     N/A
#SMITHVILLE     N/A         34  32  92  CALM    29.23R

$$

ORZ510-210710-
NORTH CENTRAL OREGON

CITY            SKY/WX      TMP DP  RH  WIND    PRES   REMARKS
#ANTELOPE       N/A         36  32  85  N5      29.06R
#CHENOWITH 1W   N/A         32  32  100 NE5     N/A
#COW CYN RST AREN/A         33  N/A N/A N1      N/A
#DUFUR 9E       N/A         31  30  96  E3      29.30R
#GRASS VALLEY 1SN/A         32  31  96  CALM    29.18R
#KENT DOT       N/A         31  27  85  N2      N/A
#MAUPIN SCHOOL  N/A         33  31  92  CALM    29.29R
#SHANIKO 5WSW   N/A         33  29  85  N8      N/A
#SHANIKO 4NW    N/A         32  31  96  S5      29.14R
#TYGH VALLEY 2NEN/A         32  31  96  CALM    29.27R
#WAPANITIA AIRPON/A         32  31  96  CALM    29.28R
#WASCO DOT      N/A         33  31  92  SW8     N/A
#WASCO 5NE      N/A         32  30  92  CALM    29.27R
$$

ORZ511-210710-
CENTRAL OREGON

CITY            SKY/WX      TMP DP  RH  WIND    PRES   REMARKS
BEND AIRPORT    PTCLDY      27  25  92  CALM    29.16R
MADRAS AIRPORT  FRZFOG      32  32  100 CALM    29.20R VSB 1/4
PRINEVILLE AP   CLOUDY      34  28  78  SE6     29.17R
REDMOND AIRPORT PTCLDY      28  24  85  SE7     29.16R
6HR MIN TEMP:   25; 6HR MAX TEMP:   39; 6HR PCP:  0.01;

#ASHWOOD SCHOOL N/A         33  31  92  CALM    29.20R
#BEND 1SW       N/A         30  29  96  SW1     N/A
#BEND-AWBREY    N/A         33  31  92  SW8     29.21R
#BEND-KIM LN    N/A         29  27  92  CALM    29.16R
#CULVER         N/A         29  27  92  CALM    29.15R
#CULVER 8W      N/A         32  29  89  CALM    29.28R
#MADRAS 4S      N/A         31  29  92  CALM    29.31R
#POWELL BUTTE 3EN/A         32  28  85  S2      N/A
#POWELL BUTTE   N/A         35  23  61  S5      29.22R
#PRINEVILLE 3N  N/A         30  28  92  E5      29.22R
#WARM SPRINGS   N/A         31  29  92  CALM    29.20R

$$


ORZ509-210710-
EAST SLOPES OF OREGON CASCADES

CITY            SKY/WX      TMP DP  RH  WIND    PRES   REMARKS
SISTERS AWOS    N/A         27  25  92  CALM    29.20R
#BLUE BOX PASS  N/A         29  N/A N/A N1      N/A
#CAMP SHERMAN   N/A         32  30  92  CALM    29.27S
#LA PINE DOT    N/A         30  27  88  S1      N/A
#LA PINE 4NW    N/A         28  25  88  CALM    29.24S
#LAVA BUTTE DOT N/A         27  25  92  CALM    N/A
#SISTERS ODOT   N/A         28  N/A N/A CALM    N/A
#SISTERS 3N     N/A         27  22  81  CALM    29.23R
#SUNRIVER       N/A         29  28  96  CALM    29.24R
#TUMALO 3W      N/A         32  29  89  S1      29.08R
#WANOGA BUTTE D N/A         26  25  96  CALM    N/A

$$

ORZ044-210710-
LOWER COLUMBIA BASIN...OREGON

CITY            SKY/WX      TMP DP  RH  WIND    PRES   REMARKS
HERMISTON       CLOUDY      34  33  96  SW7     29.23R FOG
6HR MIN TEMP:   34; 6HR MAX TEMP:   37;

#BOARDMAN SCHOOLN/A         35  33  92  W1      29.26R
#BOARDMAN 8SW   N/A         34  32  92  N3      29.27R
#ECHO 8SW       N/A         34  34  100 SW1     29.26R
#I-84 EX 198 DOTN/A         33  32  96  N3      N/A
#UMATILLA       N/A         35  30  82  CALM    29.19R
$$

ORZ507-210710-
NORTHERN FOOTHILLS OF THE BLUES

CITY            SKY/WX      TMP DP  RH  WIND    PRES   REMARKS
PENDLETON AIRPT CLOUDY      33  31  92  NW10    29.20R FOG
6HR MIN TEMP:   33; 6HR MAX TEMP:   45; 6HR PCP:  TRACE;

#ADAMS 3WNW     N/A         39  31  73  CALM    29.21R
#ATHENA         N/A         41  32  70  CALM    29.24R
#CAYUSE         N/A         44  32  62  SE17G32 29.18R WCI 36
#HELIX SCHOOL   N/A         37  32  82  N5      29.22R
#HELIX 3N       N/A         38  32  79  N10     29.21R
#HOLDMAN 5SE    N/A         33  30  89  CALM    29.23R
#HOLDMAN 6E     N/A         38  32  79  CALM    29.03R
#M-F GROVE ELEM N/A         34  30  85  CALM    29.21R
#PENDLETON DNTN N/A         36  24  61  CALM    29.21S
#PDT AQUATIC CTRN/A         35  26  69  CALM    29.25R
#PDT SUNRIDGE   N/A         36  31  82  CALM    29.21R
#PENDLETON 7NW  N/A         34  29  82  CALM    32.00S
#PILOT ROCK     N/A         40  30  67  W1      29.24R
#TUTUILLA       N/A         44  31  60  CALM    29.21R
#WESTON SCHOOL  N/A         42  29  60  S7      29.14R

$$

ORZ508-210710-
SOUTHERN FOOTHILLS OF THE BLUES

CITY            SKY/WX      TMP DP  RH  WIND    PRES   REMARKS
#AJAX           N/A         32  25  75  N5      27.17S
#CONDON SCHOOL  N/A         35  33  92  E1      29.19R
#CONDON 5W      N/A         33  30  89  SE7     29.14R
#FOSSIL SCHOOL  N/A         36  32  85  CALM    29.18R
#HEPPNER EOC    N/A         32  29  89  CALM    29.16R
#HEPPNER 4NE    N/A         35  30  82  CALM    29.21R
#LEXINGTON 2SE  N/A         33  30  89  CALM    29.17R
#MIKKALO        N/A         33  29  85  CALM    29.34R
#OLEX 4N        N/A         32  30  92  CALM    29.23S
#RUGGS 5NE      N/A         36  29  75  CALM    29.33R
#RUGGS 2SW      N/A         37  30  75  CALM    29.24R

$$

ORZ502-503-210710-
BLUE MOUNTAINS

CITY            SKY/WX      TMP DP  RH  WIND    PRES   REMARKS
MEACHAM         CLOUDY      33  26  75  CALM    29.18R
6HR MIN TEMP:   32; 6HR MAX TEMP:   35;

#BATTLE MTN DOT N/A         31  23  72  S5      N/A
#GREENHORN 9SW  N/A         31  28  88  E1      25.48R
#HEPPNER 15SE   N/A         32  26  78  E2      N/A
#LADD CYN SMT   N/A         31  29  92  E6      N/A
#LADD CREEK ODOTN/A         33  31  92  SW8     N/A
#LONG CREEK HS  N/A         35  32  89  S14     N/A    WCI 26
#N POWDER DOT   N/A         33  29  85  SE22    N/A    WCI 21
#PIKES PEAK     N/A         37  25  61  W13     27.99S WCI 29
#TOLLGATE       N/A         27  26  96  W6      29.15R
#TROY SCHOOL    N/A         31  29  92  CALM    29.17R
#UKIAH          N/A         32  28  85  CALM    29.18R
#WESTON 4E      N/A         35  29  78  SE13    29.20R WCI 26
$$

ORZ505-210710-
JOHN DAY BASIN

CITY            SKY/WX      TMP DP  RH  WIND    PRES   REMARKS
JOHN DAY        CLOUDY      35  29  78  E6      29.20R
#ANTELOPE 9ESE  N/A         34  32  92  CALM    N/A
#DAYVILLE SCHOOLN/A         36  30  79  S1      29.23R
#MITCHELL       N/A         36  32  85  E5      29.39R
#MITCHELL 8NW   N/A         35  29  78  CALM    29.04R
#MONUMENT HS    N/A         33  28  82  CALM    29.20R
#MT. VERNON 5SE N/A         33  28  82  E6      29.14R
#SPRAY SCHOOL   N/A         33  N/A N/A CALM    N/A
$$

ORZ506-210710-
OCHOCO AND JOHN DAY HIGHLANDS

CITY            SKY/WX      TMP DP  RH  WIND    PRES   REMARKS
#HORSE RIDGE DO N/A         31  26  81  S8      N/A
#KEYES SMT DOT  N/A         28  26  92  W13     N/A    WCI 17
#PAULINA SCHOOL N/A         31  27  85  CALM    N/A
#PINE MTN OBS   N/A         24  23  96  CALM    N/A
#SENECA         N/A         28  N/A N/A S6      N/A
#SENECA 9NW     N/A         27  25  92  CALM    29.28R
$$

ORZ049-210710-
GRANDE RONDE VALLEY

CITY            SKY/WX      TMP DP  RH  WIND    PRES   REMARKS
LA GRANDE       CLOUDY      37  28  70  S21G26  29.22R WCI 26
#COVE           N/A         38  32  79  SE5     29.31R
#COVE 6NW       N/A         35  31  85  E1      29.29R
#ELGIN 3N       N/A         34  26  72  CALM    29.27S
#ELGIN 1E       N/A         36  30  79  CALM    N/A
#IMBLER SCHOOL  N/A         34  30  85  CALM    29.26S
#ISLAND CITY 4N N/A         39  38  96  CALM    29.18F
#LADD CYN DOT   N/A         36  31  82  S23     N/A    WCI 24
#UNION 1S       N/A         38  32  79  SE9     29.29F
$$

ORZ050-210710-
WALLOWA COUNTY

CITY            SKY/WX      TMP DP  RH  WIND    PRES   REMARKS
JOSEPH AIRPORT  CLOUDY      27  27  100 CALM    29.22R
#IMNAHA SCHOOL  N/A         31  30  96  N1      29.30S
#IMNAHA 10S     N/A         38  28  67  SW7     29.28R
#JOSEPH 3N      N/A         22  17  81  W1      29.32R
#JOSEPH 3W      N/A         25  22  88  CALM    29.14R
#LOSTINE        N/A         24  23  96  CALM    29.16R
#LOSTINE 3SE    N/A         25  25  100 CALM    29.27R
#MT HOWARD 8000 N/A         19  16  88  S7      29.08R
#PROMISE 1S     N/A         27  25  92  CALM    29.41R
#WALLOWA SCHOOL N/A         25  24  96  CALM    29.28S



$$



USA.gov is the U.S. government's official web portal to all federal, state and local government web resources and services.